Location: Friaudour
(46.0460°N, 1.2873°E)
Time: 08:02:52
(UTC+00:00)

Cosmos 2369 - Pass Details

Date: 14 July 2020
Orbit: 838 x 857 km, 71.0° (Epoch: 14 August)

Event Time Altitude Azimuth Distance (km) Brightness Sun altitude
Rises 01:38:53 0° 335° (NNW) 3,434 7.5 -18.8°
Reaches altitude 10° 01:41:23 10° 339° (NNW) 2,496 6.7 -18.6°
Maximum altitude 01:47:05 64° 60° (ENE) 946 4.1 -18.2°
Drops below altitude 10° 01:52:45 10° 142° (SE) 2,485 5.9 -17.7°
Enters shadow 01:54:52 - 145° (SE) 3,281 6.5 -17.6°
